Simultaneous Nadir Overpasses (SNOs) Predictions

Prediction of SNOs between NPP and TERRA Satellite Orbit:

Table of predicted SNOs for the next 14.0 days since TLE Epoch: 4/25/2015
Index Date (NPP) Time (NPP) Lat,Lon (NPP) SZA (NPP ) Date (TERRA) Time (TERRA) Lat,Lon (TERRA) SZA (TERRA ) Distance(km) Time Diff (sec)
1 04/27/2015 15:55:06 -68.94, 120.52 125.04 04/27/2015 15:55:50 -68.92, 120.51 125.07 2.66 44
2 04/27/2015 16:45:50 68.82, -72.01 54.83 04/27/2015 16:45:17 68.83, -71.97 54.83 1.75 33
3 04/30/2015 08:11:56 -68.96,-123.72 125.87 04/30/2015 08:12:42 -68.94,-123.69 125.89 2.40 46
4 04/30/2015 09:02:38 68.78, 43.83 53.95 04/30/2015 09:02:09 68.79, 43.77 53.96 2.47 29
5 04/30/2015 09:53:02 -67.74,-147.52 127.11 04/30/2015 09:51:55 -67.82,-149.77 127.03 95.16 67
6 05/03/2015 00:28:44 -68.93, -7.89 126.71 05/03/2015 00:29:43 -68.93, -7.96 126.71 2.73 59
7 05/03/2015 01:19:28 68.81, 159.58 53.17 05/03/2015 01:19:10 68.84, 159.57 53.19 3.11 18
8 05/03/2015 02:10:00 -68.19, -32.30 127.46 05/03/2015 02:08:49 -68.26, -33.50 127.40 50.26 71
9 05/05/2015 16:45:39 -69.23, 107.48 127.18 05/05/2015 16:46:50 -69.16, 108.04 127.25 23.79 71
10 05/05/2015 17:36:18 68.85, -84.69 52.43 05/05/2015 17:36:21 68.85, -84.71 52.43 0.85 3
11 05/05/2015 18:26:59 -68.71, 82.81 127.72 05/05/2015 18:25:52 -68.73, 82.77 127.70 2.75 67
12 05/08/2015 09:53:08 68.90, 31.03 51.73 05/08/2015 09:53:41 68.89, 31.01 51.73 0.99 33
13 05/08/2015 10:43:49 -68.76,-161.47
